Location: Clanezzo
(45.7500°N, 9.6000°E)
Time: 08:28:05
(UTC+00:00)

AO-92 - Pass Details

Date: 06 July 2022
Orbit: 469 x 481 km, 97.4° (Epoch: 09 August)

Event Time Altitude Azimuth Distance (km) Brightness Sun altitude
Exits shadow 20:35:52 15° 115° (ESE) 1,366 ? -11.4°
Maximum altitude 20:37:56 25° 69° (ENE) 1,014 ? -11.7°
Drops below altitude 10° 20:40:55 10° 12° (NNE) 1,673 ? -12.0°
Sets 20:43:14 0° 359° (N) 2,561 ? -12.2°
